When you browse on this site, cookies collect data to enhance your experience and personalize the content and advertising you see.
Visit our Privacy Policy to learn more. By continuing to use the site, you agree to this use of cookies and data.
  • In Hungary
  • List of Countries
  • For 7 days
  • Water Temperature
  • Satellite Maps
  • Weather Map
  • News
  • Weather Widgets
  • user-avatar
    Login

    Hourly Weather Saarbrucken

    Today, 16 July, Tuesday

    Time Temperature Precipitation Wind Pressure Humidity
    00:00 +11°C° 0 mm 1 mps 741 mmHg 92%
    01:00 +11°C° 0 mm 1 mps 741 mmHg 92%
    02:00 +11°C° 0 mm 1 mps 741 mmHg 92%
    03:00 +10°C° 0 mm 1 mps 741 mmHg 92%
    04:00 +12°C° 0 mm 1 mps 741 mmHg 88%
    05:00 +13°C° 0 mm 1 mps 741 mmHg 84%
    06:00 +14°C° 0 mm 1 mps 742 mmHg 78%
    07:00 +16°C° 0 mm 1 mps 742 mmHg 70%
    08:00 +19°C° 0 mm 1 mps 742 mmHg 63%
    09:00 +21°C° 0 mm 1 mps 742 mmHg 56%
    10:00 +23°C° 0 mm 1 mps 742 mmHg 52%
    11:00 +24°C° 0 mm 1 mps 741 mmHg 48%
    12:00 +26°C° 0 mm 1 mps 741 mmHg 44%
    13:00 +26°C° 0 mm 1 mps 741 mmHg 43%
    14:00 +26°C° 0 mm 1 mps 741 mmHg 42%
    15:00 +26°C° 0 mm 1 mps 740 mmHg 41%
    16:00 +25°C° 0 mm 1 mps 740 mmHg 47%
    17:00 +24°C° 0 mm 1 mps 740 mmHg 53%
    18:00 +23°C° 0 mm 1 mps 740 mmHg 60%
    19:00 +21°C° 0 mm 1 mps 740 mmHg 66%
    20:00 +19°C° 0 mm 1 mps 740 mmHg 71%
    21:00 +16°C° 0 mm 1 mps 740 mmHg 77%
    22:00 +16°C° 0 mm 1 mps 740 mmHg 80%
    23:00 +15°C° 0 mm 1 mps 740 mmHg 83%

    Tomorrow, 17 July, Wednesday

    Time Temperature Precipitation Wind Pressure Humidity
    00:00 +14°C° 0 mm 1 mps 740 mmHg 86%
    01:00 +14°C° 0 mm 1 mps 740 mmHg 87%
    02:00 +13°C° 0 mm 1 mps 739 mmHg 88%
    03:00 +12°C° 0 mm 0 mps 739 mmHg 89%
    04:00 +13°C° 0 mm 0 mps 739 mmHg 86%
    05:00 +14°C° 0 mm 0 mps 739 mmHg 82%
    06:00 +15°C° 0 mm 0 mps 739 mmHg 79%
    07:00 +17°C° 0 mm 0 mps 739 mmHg 72%
    08:00 +20°C° 0 mm 0 mps 739 mmHg 65%
    09:00 +22°C° 0 mm 0 mps 739 mmHg 58%
    10:00 +25°C° 0 mm 1 mps 739 mmHg 53%
    11:00 +26°C° 0 mm 1 mps 739 mmHg 48%
    12:00 +27°C° 0 mm 2 mps 739 mmHg 43%
    13:00 +27°C° 0 mm 2 mps 739 mmHg 42%
    14:00 +27°C° 0 mm 2 mps 738 mmHg 41%
    15:00 +27°C° 0 mm 2 mps 738 mmHg 39%
    16:00 +26°C° 0 mm 2 mps 738 mmHg 46%
    17:00 +25°C° 0 mm 2 mps 738 mmHg 53%
    18:00 +24°C° 0 mm 2 mps 738 mmHg 60%
    19:00 +22°C° 0 mm 1 mps 738 mmHg 65%
    20:00 +20°C° 0 mm 1 mps 738 mmHg 69%
    21:00 +19°C° 0 mm 1 mps 738 mmHg 74%
    22:00 +18°C° 0 mm 1 mps 738 mmHg 75%
    23:00 +18°C° 0 mm 1 mps 738 mmHg 76%

    Day after tomorrow, 18 July, Thursday

    Time Temperature Precipitation Wind Pressure Humidity
    00:00 +15°C° 0 mm 0 mps 737 mmHg 77%
    01:00 +15°C° 0 mm 0 mps 737 mmHg 78%
    02:00 +15°C° 0 mm 1 mps 737 mmHg 80%
    03:00 +15°C° 0 mm 1 mps 737 mmHg 82%
    04:00 +15°C° 0 mm 1 mps 737 mmHg 79%
    05:00 +16°C° 0 mm 1 mps 737 mmHg 77%
    06:00 +18°C° 0 mm 1 mps 737 mmHg 74%
    07:00 +20°C° 0 mm 1 mps 737 mmHg 67%
    08:00 +21°C° 0 mm 2 mps 737 mmHg 61%
    09:00 +24°C° 0 mm 2 mps 738 mmHg 54%
    10:00 +25°C° 0 mm 2 mps 737 mmHg 51%
    11:00 +26°C° 0 mm 3 mps 737 mmHg 48%
    12:00 +26°C° 0 mm 3 mps 737 mmHg 45%
    13:00 +27°C° 0 mm 3 mps 737 mmHg 45%
    14:00 +27°C° 0 mm 4 mps 737 mmHg 45%
    15:00 +27°C° 0 mm 4 mps 737 mmHg 45%
    16:00 +25°C° 0 mm 3 mps 737 mmHg 51%
    17:00 +24°C° 0 mm 3 mps 737 mmHg 57%
    18:00 +23°C° 0 mm 2 mps 737 mmHg 63%
    19:00 +20°C° 0.1 mm 2 mps 737 mmHg 66%
    20:00 +20°C° 0.1 mm 1 mps 737 mmHg 70%
    21:00 +16°C° 0.1 mm 0 mps 737 mmHg 73%
    22:00 +16°C° 0.1 mm 0 mps 738 mmHg 75%
    23:00 +16°C° 0.1 mm 0 mps 738 mmHg 77%

    19 July, Friday

    Time Temperature Precipitation Wind Pressure Humidity
    00:00 +15°C° 0.1 mm 0 mps 738 mmHg 80%
    01:00 +16°C° 0 mm 1 mps 738 mmHg 83%
    02:00 +15°C° 0 mm 1 mps 738 mmHg 87%
    03:00 +15°C° 0 mm 1 mps 738 mmHg 91%
    04:00 +16°C° 0 mm 1 mps 738 mmHg 90%
    05:00 +18°C° 0 mm 1 mps 738 mmHg 88%
    06:00 +19°C° 0 mm 1 mps 738 mmHg 86%
    07:00 +19°C° 0.1 mm 2 mps 739 mmHg 79%
    08:00 +21°C° 0.1 mm 2 mps 739 mmHg 72%
    09:00 +24°C° 0.1 mm 2 mps 739 mmHg 64%
    10:00 +24°C° 0.1 mm 3 mps 739 mmHg 61%
    11:00 +25°C° 0.1 mm 3 mps 739 mmHg 57%
    12:00 +26°C° 0.1 mm 3 mps 739 mmHg 53%
    13:00 +26°C° 0.2 mm 3 mps 739 mmHg 53%
    14:00 +27°C° 0.2 mm 3 mps 738 mmHg 54%
    15:00 +27°C° 0.2 mm 2 mps 738 mmHg 54%
    16:00 +26°C° 0.4 mm 2 mps 738 mmHg 62%
    17:00 +25°C° 0.4 mm 2 mps 738 mmHg 70%
    18:00 +23°C° 0.4 mm 1 mps 738 mmHg 78%
    19:00 +22°C° 0.1 mm 1 mps 738 mmHg 81%
    20:00 +20°C° 0.1 mm 1 mps 739 mmHg 84%
    21:00 +17°C° 0.1 mm 0 mps 739 mmHg 87%
    22:00 +17°C° 0 mm 0 mps 739 mmHg 88%
    23:00 +16°C° 0 mm 0 mps 738 mmHg 89%

    20 July, Saturday

    Time Temperature Precipitation Wind Pressure Humidity
    00:00 +16°C° 0 mm 0 mps 738 mmHg 90%
    01:00 +15°C° 0 mm 0 mps 738 mmHg 90%
    02:00 +15°C° 0 mm 0 mps 738 mmHg 91%
    03:00 +15°C° 0 mm 0 mps 738 mmHg 91%
    04:00 +16°C° 0 mm 0 mps 738 mmHg 90%
    05:00 +17°C° 0 mm 0 mps 738 mmHg 89%
    06:00 +18°C° 0 mm 0 mps 738 mmHg 87%
    07:00 +21°C° 0 mm 1 mps 738 mmHg 79%
    08:00 +23°C° 0 mm 1 mps 738 mmHg 71%
    09:00 +25°C° 0 mm 2 mps 738 mmHg 63%
    10:00 +26°C° 0 mm 2 mps 738 mmHg 58%
    11:00 +27°C° 0 mm 2 mps 738 mmHg 52%
    12:00 +28°C° 0 mm 3 mps 738 mmHg 47%
    13:00 +28°C° 0.1 mm 3 mps 737 mmHg 50%
    14:00 +27°C° 0.1 mm 3 mps 737 mmHg 54%
    15:00 +27°C° 0.1 mm 3 mps 737 mmHg 57%
    16:00 +26°C° 0.8 mm 2 mps 737 mmHg 64%
    17:00 +25°C° 0.8 mm 2 mps 738 mmHg 71%
    18:00 +23°C° 0.8 mm 2 mps 738 mmHg 78%
    19:00 +22°C° 1.2 mm 1 mps 738 mmHg 81%
    20:00 +21°C° 1.2 mm 1 mps 739 mmHg 84%
    21:00 +20°C° 1.2 mm 1 mps 739 mmHg 88%
    22:00 +19°C° 0.2 mm 1 mps 739 mmHg 89%
    23:00 +19°C° 0.2 mm 1 mps 739 mmHg 90%

    21 July, Sunday

    Time Temperature Precipitation Wind Pressure Humidity
    00:00 +18°C° 0.2 mm 1 mps 740 mmHg 91%
    01:00 +18°C° 0.5 mm 1 mps 740 mmHg 92%
    02:00 +16°C° 0.5 mm 1 mps 740 mmHg 92%
    03:00 +16°C° 0.5 mm 1 mps 740 mmHg 93%
    04:00 +18°C° 0 mm 1 mps 740 mmHg 92%
    05:00 +18°C° 0 mm 1 mps 741 mmHg 91%
    06:00 +19°C° 0 mm 1 mps 741 mmHg 90%
    07:00 +20°C° 0.1 mm 2 mps 742 mmHg 83%
    08:00 +21°C° 0.1 mm 2 mps 742 mmHg 76%
    09:00 +24°C° 0.1 mm 2 mps 743 mmHg 68%
    10:00 +25°C° 0.4 mm 2 mps 743 mmHg 67%
    11:00 +25°C° 0.4 mm 3 mps 743 mmHg 66%
    12:00 +26°C° 0.4 mm 3 mps 743 mmHg 65%
    13:00 +26°C° 0.5 mm 3 mps 743 mmHg 65%
    14:00 +26°C° 0.5 mm 3 mps 743 mmHg 64%
    15:00 +26°C° 0.5 mm 2 mps 743 mmHg 64%
    16:00 +25°C° 0.2 mm 2 mps 743 mmHg 68%
    17:00 +25°C° 0.2 mm 2 mps 743 mmHg 73%
    18:00 +24°C° 0.2 mm 1 mps 744 mmHg 77%
    19:00 +22°C° 0 mm 1 mps 744 mmHg 80%
    20:00 +21°C° 0 mm 1 mps 744 mmHg 83%
    21:00 +19°C° 0 mm 1 mps 745 mmHg 86%
    22:00 +19°C° 0 mm 1 mps 745 mmHg 86%
    23:00 +18°C° 0 mm 1 mps 744 mmHg 86%
    Show more